EmailTwitter


Observations de surface / France / LFBO (07630)

Régions: Québec | Canada | États-Unis | Europe | France | UK | Ailleurs
Station
Affichage
Infos & localisation pour LFBO (07630) | Aide pour décoder les METARs

Observations prises le 2019-09-23 à 10H30 UTC à TOULOUSE/BLAGNAC, FR (LFBO)

Etat du ciel: quelques nuages.

Température: 21.0 Celsius

Point de rosée: 13.0 Celsius

Humidité relative: 60%

Vents: Variable à 4 km/h ou 2 noeuds.

Pression au niveau moyen de la mer: 102.00 kilopascals.

Visibilité horizontale: 6.21 milles terrestres ou 9.94 kilomètres.

Observation METAR:

LFBO 231030Z AUTO VRB02KT 9999 FEW024 21/13 Q1020 NOSIG=